Time,TemperatureF,DewpointF,PressureIn,WindDirection,WindDirectionDegrees,WindSpeedMPH,WindSpeedGustMPH,Humidity,HourlyPrecipIn,Conditions,Clouds,dailyrainin,SoftwareType,DateUTC
2013-01-10 00:03:00,30.0,26.0,30.52,WSW,239,0.0,0.0,86,0.00,,,0.06,,2013-01-10 05:03:00,
2013-01-10 00:12:00,30.0,26.0,30.52,WSW,239,0.0,0.0,86,0.00,,,0.06,,2013-01-10 05:12:00,
2013-01-10 00:22:00,30.0,27.0,30.51,WSW,239,0.0,0.0,87,0.00,,,0.06,,2013-01-10 05:22:00,
2013-01-10 00:33:00,29.0,26.0,30.52,WSW,239,0.0,0.0,88,0.00,,,0.06,,2013-01-10 05:33:00,
2013-01-10 00:42:00,29.0,26.0,30.52,WSW,239,0.0,0.0,88,0.00,,,0.06,,2013-01-10 05:42:00,
2013-01-10 00:53:00,29.0,26.0,30.52,WSW,239,0.0,0.0,88,0.00,,,0.06,,2013-01-10 05:53:00,
2013-01-10 01:02:00,28.0,25.0,30.51,WSW,239,0.0,0.0,87,0.00,,,0.06,,2013-01-10 06:02:00,
2013-01-10 01:12:00,28.0,25.0,30.51,WSW,239,0.0,0.0,87,0.00,,,0.06,,2013-01-10 06:12:00,
2013-01-10 01:22:00,28.0,25.0,30.51,WSW,239,0.0,0.0,88,0.00,,,0.06,,2013-01-10 06:22:00,
2013-01-10 01:32:00,27.0,24.0,30.51,WSW,239,0.0,0.0,89,0.00,,,0.06,,2013-01-10 06:32:00,
2013-01-10 01:42:00,27.0,24.0,30.51,WSW,239,0.0,0.0,89,0.00,,,0.06,,2013-01-10 06:42:00,
2013-01-10 01:52:00,28.0,25.0,30.51,WSW,239,0.0,0.0,90,0.00,,,0.06,,2013-01-10 06:52:00,
2013-01-10 02:02:00,27.0,24.0,30.51,WSW,239,0.0,0.0,89,0.00,,,0.06,,2013-01-10 07:02:00,
2013-01-10 02:12:00,27.0,24.0,30.51,WSW,239,0.0,0.0,89,0.00,,,0.06,,2013-01-10 07:12:00,
2013-01-10 02:22:00,27.0,24.0,30.50,WSW,239,0.0,0.0,89,0.00,,,0.06,,2013-01-10 07:22:00,
2013-01-10 02:32:00,26.0,23.0,30.51,WSW,239,0.0,0.0,89,0.00,,,0.06,,2013-01-10 07:32:00,
2013-01-10 02:42:00,26.0,23.0,30.51,WSW,239,0.0,0.0,89,0.00,,,0.06,,2013-01-10 07:42:00,
2013-01-10 02:52:00,26.0,23.0,30.51,WSW,239,0.0,1.0,90,0.00,,,0.06,,2013-01-10 07:52:00,
2013-01-10 03:02:00,26.0,24.0,30.51,WSW,239,0.0,0.0,91,0.00,,,0.06,,2013-01-10 08:02:00,
2013-01-10 03:12:00,26.0,24.0,30.51,WSW,239,0.0,0.0,91,0.00,,,0.06,,2013-01-10 08:12:00,
2013-01-10 03:22:00,26.0,24.0,30.52,WSW,239,0.0,0.0,91,0.00,,,0.06,,2013-01-10 08:22:00,
2013-01-10 03:32:00,27.0,25.0,30.52,WSW,239,0.0,0.0,91,0.00,,,0.06,,2013-01-10 08:32:00,
2013-01-10 03:42:00,27.0,25.0,30.52,WSW,239,0.0,0.0,91,0.00,,,0.06,,2013-01-10 08:42:00,
2013-01-10 03:53:00,26.0,23.0,30.53,WSW,239,0.0,0.0,90,0.00,,,0.06,,2013-01-10 08:53:00,
2013-01-10 04:02:00,26.0,23.0,30.53,WSW,239,0.0,0.0,90,0.00,,,0.06,,2013-01-10 09:02:00,
2013-01-10 04:12:00,26.0,23.0,30.53,WSW,239,0.0,0.0,90,0.00,,,0.06,,2013-01-10 09:12:00,
2013-01-10 04:22:00,25.0,22.0,30.52,WSW,239,0.0,0.0,90,0.00,,,0.06,,2013-01-10 09:22:00,
2013-01-10 04:32:00,25.0,22.0,30.51,WSW,239,0.0,0.0,90,0.00,,,0.06,,2013-01-10 09:32:00,
2013-01-10 04:42:00,25.0,22.0,30.51,WSW,239,0.0,0.0,90,0.00,,,0.06,,2013-01-10 09:42:00,
2013-01-10 04:52:00,25.0,23.0,30.51,WSW,239,0.0,0.0,91,0.00,,,0.06,,2013-01-10 09:52:00,
2013-01-10 05:03:00,25.0,22.0,30.50,WSW,239,0.0,0.0,90,0.00,,,0.06,,2013-01-10 10:03:00,
2013-01-10 05:12:00,25.0,22.0,30.50,WSW,239,0.0,0.0,90,0.00,,,0.06,,2013-01-10 10:12:00,
2013-01-10 05:22:00,25.0,23.0,30.51,WSW,239,0.0,0.0,92,0.00,,,0.06,,2013-01-10 10:22:00,
2013-01-10 05:32:00,25.0,23.0,30.51,WSW,239,0.0,0.0,92,0.00,,,0.06,,2013-01-10 10:32:00,
2013-01-10 05:42:00,25.0,23.0,30.51,WSW,239,0.0,0.0,92,0.00,,,0.06,,2013-01-10 10:42:00,
2013-01-10 05:52:00,25.0,23.0,30.50,WSW,239,0.0,0.0,91,0.00,,,0.06,,2013-01-10 10:52:00,
2013-01-10 06:02:00,24.0,22.0,30.49,WSW,239,0.0,0.0,91,0.00,,,0.06,,2013-01-10 11:02:00,
2013-01-10 06:12:00,24.0,22.0,30.49,WSW,239,0.0,0.0,91,0.00,,,0.06,,2013-01-10 11:12:00,
2013-01-10 06:22:00,25.0,23.0,30.49,WSW,239,0.0,0.0,92,0.00,,,0.03,,2013-01-10 11:22:00,
2013-01-10 06:32:00,25.0,23.0,30.50,WSW,239,0.0,0.0,92,0.00,,,0.03,,2013-01-10 11:32:00,
2013-01-10 06:42:00,25.0,23.0,30.50,WSW,239,0.0,0.0,92,0.00,,,0.03,,2013-01-10 11:42:00,
2013-01-10 06:53:00,25.0,23.0,30.50,WSW,239,0.0,0.0,92,0.00,,,0.03,,2013-01-10 11:53:00,
2013-01-10 07:02:00,26.0,24.0,30.50,WSW,239,0.0,0.0,93,0.00,,,0.03,,2013-01-10 12:02:00,
2013-01-10 07:12:00,26.0,24.0,30.50,WSW,239,0.0,0.0,93,0.00,,,0.03,,2013-01-10 12:12:00,
2013-01-10 07:22:00,28.0,26.0,30.50,WSW,239,0.0,2.0,93,0.00,,,0.00,,2013-01-10 12:22:00,
2013-01-10 07:32:00,29.0,27.0,30.50,East,85,0.0,1.0,93,0.00,,,0.00,,2013-01-10 12:32:00,
2013-01-10 07:42:00,29.0,27.0,30.50,East,85,0.0,1.0,93,0.00,,,0.00,,2013-01-10 12:42:00,
2013-01-10 07:53:00,29.0,27.0,30.49,East,85,0.0,2.0,91,0.00,,,0.00,,2013-01-10 12:53:00,
2013-01-10 08:02:00,29.0,26.0,30.50,East,85,0.0,2.0,90,0.00,,,0.00,,2013-01-10 13:02:00,
2013-01-10 08:12:00,29.0,26.0,30.50,East,85,0.0,2.0,90,0.00,,,0.00,,2013-01-10 13:12:00,
2013-01-10 08:22:00,29.0,26.0,30.49,East,85,0.0,1.0,88,0.00,,,0.00,,2013-01-10 13:22:00,
2013-01-10 08:32:00,29.0,26.0,30.49,East,85,0.0,1.0,87,0.00,,,0.00,,2013-01-10 13:32:00,
2013-01-10 08:42:00,29.0,26.0,30.49,East,85,0.0,1.0,87,0.00,,,0.00,,2013-01-10 13:42:00,
2013-01-10 08:53:00,30.0,27.0,30.48,East,85,1.0,5.0,87,0.00,,,0.00,,2013-01-10 13:53:00,
2013-01-10 09:02:00,31.0,27.0,30.48,East,93,0.0,2.0,85,0.00,,,0.00,,2013-01-10 14:02:00,
2013-01-10 09:12:00,31.0,27.0,30.48,East,93,0.0,2.0,85,0.00,,,0.00,,2013-01-10 14:12:00,
2013-01-10 09:22:00,31.0,27.0,30.48,ENE,77,1.0,3.0,85,0.00,,,0.00,,2013-01-10 14:22:00,
2013-01-10 09:32:00,32.0,28.0,30.47,ENE,75,2.0,5.0,84,0.00,,,0.00,,2013-01-10 14:32:00,
2013-01-10 09:43:00,32.0,28.0,30.47,ENE,75,2.0,5.0,84,0.00,,,0.00,,2013-01-10 14:43:00,
2013-01-10 09:53:00,32.0,27.0,30.47,ESE,119,2.0,6.0,82,0.00,,,0.00,,2013-01-10 14:53:00,
2013-01-10 10:03:00,32.0,27.0,30.47,ESE,119,2.0,6.0,82,0.00,,,0.00,,2013-01-10 15:03:00,
2013-01-10 10:12:00,32.0,27.0,30.47,ESE,119,2.0,6.0,82,0.00,,,0.00,,2013-01-10 15:12:00,
2013-01-10 10:22:00,34.0,28.0,30.47,East,97,3.0,6.0,78,0.01,,,0.01,,2013-01-10 15:22:00,
2013-01-10 10:33:00,35.0,29.0,30.47,ESE,102,1.0,5.0,77,0.01,,,0.01,,2013-01-10 15:33:00,
2013-01-10 10:43:00,35.0,29.0,30.47,ESE,102,1.0,5.0,77,0.01,,,0.01,,2013-01-10 15:43:00,
2013-01-10 10:53:00,35.0,28.0,30.46,East,84,4.0,7.0,76,0.01,,,0.01,,2013-01-10 15:53:00,
2013-01-10 11:02:00,36.0,29.0,30.46,ENE,78,2.0,8.0,75,0.00,,,0.01,,2013-01-10 16:02:00,
2013-01-10 11:13:00,36.0,29.0,30.46,ENE,78,2.0,8.0,75,0.00,,,0.01,,2013-01-10 16:13:00,
2013-01-10 11:23:00,36.0,28.0,30.46,ENE,74,3.0,5.0,73,0.00,,,0.01,,2013-01-10 16:23:00,
2013-01-10 11:33:00,37.0,29.0,30.45,East,86,4.0,7.0,72,0.00,,,0.01,,2013-01-10 16:33:00,
2013-01-10 11:43:00,37.0,29.0,30.45,East,86,4.0,7.0,72,0.00,,,0.01,,2013-01-10 16:43:00,
2013-01-10 11:53:00,37.0,28.0,30.45,ESE,119,2.0,8.0,71,0.00,,,0.01,,2013-01-10 16:53:00,
2013-01-10 12:03:00,37.0,28.0,30.43,East,96,5.0,9.0,70,0.00,,,0.01,,2013-01-10 17:03:00,
2013-01-10 12:12:00,37.0,28.0,30.43,East,96,5.0,9.0,70,0.00,,,0.01,,2013-01-10 17:12:00,
2013-01-10 12:22:00,38.0,29.0,30.42,ENE,73,5.0,9.0,70,0.00,,,0.01,,2013-01-10 17:22:00,
2013-01-10 12:33:00,38.0,29.0,30.41,ESE,121,3.0,10.0,69,0.00,,,0.01,,2013-01-10 17:33:00,
2013-01-10 12:42:00,38.0,29.0,30.41,ESE,121,3.0,10.0,69,0.00,,,0.01,,2013-01-10 17:42:00,
2013-01-10 12:53:00,38.0,29.0,30.40,East,101,2.0,7.0,69,0.00,,,0.01,,2013-01-10 17:53:00,
2013-01-10 13:03:00,38.0,28.0,30.39,East,97,3.0,7.0,68,0.00,,,0.01,,2013-01-10 18:03:00,
2013-01-10 13:12:00,39.0,29.0,30.39,ESE,107,3.0,8.0,67,0.00,,,0.01,,2013-01-10 18:12:00,
2013-01-10 13:23:00,39.0,29.0,30.39,ESE,107,3.0,8.0,67,0.00,,,0.01,,2013-01-10 18:23:00,
2013-01-10 13:33:00,39.0,29.0,30.38,ESE,119,4.0,7.0,66,0.00,,,0.01,,2013-01-10 18:33:00,
2013-01-10 13:43:00,40.0,29.0,30.36,ESE,119,5.0,12.0,64,0.00,,,0.01,,2013-01-10 18:43:00,
2013-01-10 13:53:00,40.0,29.0,30.36,ESE,119,5.0,12.0,64,0.00,,,0.01,,2013-01-10 18:53:00,
2013-01-10 14:03:00,40.0,29.0,30.35,East,84,6.0,12.0,65,0.00,,,0.01,,2013-01-10 19:03:00,
2013-01-10 14:13:00,40.0,30.0,30.34,East,88,3.0,10.0,66,0.00,,,0.01,,2013-01-10 19:13:00,
2013-01-10 14:23:00,40.0,30.0,30.34,East,88,3.0,10.0,66,0.00,,,0.01,,2013-01-10 19:23:00,
2013-01-10 14:33:00,40.0,30.0,30.32,ESE,116,3.0,11.0,67,0.00,,,0.01,,2013-01-10 19:33:00,
2013-01-10 14:43:00,40.0,30.0,30.32,ESE,116,3.0,11.0,67,0.00,,,0.01,,2013-01-10 19:43:00,
2013-01-10 14:52:00,40.0,30.0,30.31,ENE,72,4.0,9.0,68,0.00,,,0.01,,2013-01-10 19:52:00,
2013-01-10 15:02:00,40.0,30.0,30.31,SE,130,4.0,10.0,68,0.00,,,0.01,,2013-01-10 20:02:00,
2013-01-10 15:12:00,40.0,30.0,30.31,SE,130,4.0,10.0,68,0.00,,,0.01,,2013-01-10 20:12:00,
2013-01-10 15:23:00,40.0,30.0,30.31,SE,130,4.0,10.0,68,0.00,,,0.01,,2013-01-10 20:23:00,
2013-01-10 15:33:00,40.0,31.0,30.30,SE,144,4.0,9.0,69,0.00,,,0.01,,2013-01-10 20:33:00,
2013-01-10 15:43:00,40.0,31.0,30.30,SE,144,4.0,9.0,69,0.00,,,0.01,,2013-01-10 20:43:00,
2013-01-10 15:53:00,40.0,31.0,30.29,SE,143,4.0,10.0,70,0.00,,,0.01,,2013-01-10 20:53:00,
2013-01-10 16:03:00,40.0,31.0,30.29,ESE,107,4.0,9.0,71,0.00,,,0.01,,2013-01-10 21:03:00,
2013-01-10 16:12:00,40.0,31.0,30.29,ESE,107,4.0,9.0,71,0.00,,,0.01,,2013-01-10 21:12:00,
2013-01-10 16:23:00,40.0,31.0,30.29,ESE,105,5.0,9.0,71,0.00,,,0.01,,2013-01-10 21:23:00,
2013-01-10 16:33:00,40.0,32.0,30.29,South,169,6.0,11.0,72,0.00,,,0.01,,2013-01-10 21:33:00,
2013-01-10 16:42:00,40.0,32.0,30.29,South,169,6.0,11.0,72,0.00,,,0.01,,2013-01-10 21:42:00,
2013-01-10 16:53:00,39.0,31.0,30.28,ESE,105,4.0,10.0,73,0.00,,,0.01,,2013-01-10 21:53:00,
2013-01-10 17:03:00,39.0,32.0,30.28,ESE,121,3.0,9.0,75,0.00,,,0.01,,2013-01-10 22:03:00,
2013-01-10 17:12:00,39.0,33.0,30.27,ESE,109,4.0,8.0,79,0.00,,,0.01,,2013-01-10 22:12:00,
2013-01-10 17:25:00,39.0,33.0,30.27,ESE,109,4.0,8.0,79,0.00,,,0.01,,2013-01-10 22:25:00,
2013-01-10 17:33:00,38.0,34.0,30.26,SE,132,4.0,8.0,85,0.02,,,0.03,,2013-01-10 22:33:00,
2013-01-10 17:43:00,38.0,34.0,30.26,SE,132,4.0,8.0,85,0.02,,,0.03,,2013-01-10 22:43:00,
2013-01-10 18:02:00,37.0,34.0,30.25,ESE,119,4.0,7.0,88,0.04,,,0.05,,2013-01-10 23:02:00,
2013-01-10 18:12:00,37.0,34.0,30.25,ESE,119,4.0,7.0,88,0.04,,,0.05,,2013-01-10 23:12:00,
2013-01-10 18:23:00,37.0,34.0,30.24,East,90,2.0,8.0,89,0.04,,,0.05,,2013-01-10 23:23:00,
2013-01-10 18:33:00,38.0,35.0,30.23,East,93,3.0,8.0,90,0.02,,,0.05,,2013-01-10 23:33:00,
2013-01-10 18:43:00,38.0,35.0,30.23,East,93,3.0,8.0,90,0.02,,,0.05,,2013-01-10 23:43:00,
2013-01-10 18:53:00,38.0,35.0,30.23,ESE,119,4.0,7.0,89,0.01,,,0.05,,2013-01-10 23:53:00,
2013-01-10 19:03:00,38.0,35.0,30.22,SE,132,3.0,10.0,88,0.00,,,0.05,,2013-01-11 00:03:00,
2013-01-10 19:12:00,38.0,35.0,30.22,SE,132,3.0,10.0,88,0.00,,,0.05,,2013-01-11 00:12:00,
2013-01-10 19:23:00,38.0,34.0,30.21,East,96,3.0,8.0,87,0.00,,,0.05,,2013-01-11 00:23:00,
2013-01-10 19:33:00,38.0,35.0,30.20,East,96,3.0,8.0,88,0.01,,,0.06,,2013-01-11 00:33:00,
2013-01-10 19:42:00,38.0,35.0,30.20,East,96,3.0,8.0,88,0.01,,,0.06,,2013-01-11 00:42:00,
2013-01-10 19:52:00,38.0,35.0,30.19,SE,128,4.0,9.0,89,0.02,,,0.07,,2013-01-11 00:52:00,
2013-01-10 20:03:00,38.0,35.0,30.18,ESE,121,4.0,8.0,89,0.02,,,0.07,,2013-01-11 01:03:00,
2013-01-10 20:13:00,39.0,36.0,30.17,ESE,112,2.0,6.0,89,0.02,,,0.07,,2013-01-11 01:13:00,
2013-01-10 20:23:00,39.0,36.0,30.17,ESE,112,2.0,6.0,89,0.02,,,0.07,,2013-01-11 01:23:00,
2013-01-10 20:33:00,39.0,36.0,30.17,ESE,112,2.0,6.0,89,0.02,,,0.07,,2013-01-11 01:33:00,
2013-01-10 20:43:00,39.0,36.0,30.17,ESE,112,2.0,6.0,89,0.02,,,0.07,,2013-01-11 01:43:00,
2013-01-10 20:52:00,39.0,37.0,30.15,SE,126,2.0,6.0,91,0.00,,,0.07,,2013-01-11 01:52:00,
2013-01-10 21:03:00,39.0,37.0,30.14,East,97,3.0,7.0,91,0.00,,,0.07,,2013-01-11 02:03:00,
2013-01-10 21:13:00,39.0,37.0,30.14,East,97,3.0,7.0,91,0.00,,,0.07,,2013-01-11 02:13:00,
2013-01-10 21:23:00,39.0,37.0,30.14,SE,132,5.0,9.0,92,0.00,,,0.07,,2013-01-11 02:23:00,
2013-01-10 21:33:00,40.0,38.0,30.12,ESE,106,4.0,9.0,92,0.02,,,0.09,,2013-01-11 02:33:00,
2013-01-10 21:43:00,40.0,38.0,30.12,ESE,106,4.0,9.0,92,0.02,,,0.09,,2013-01-11 02:43:00,
2013-01-10 21:53:00,40.0,38.0,30.12,ESE,106,4.0,9.0,92,0.02,,,0.09,,2013-01-11 02:53:00,
2013-01-10 22:02:00,41.0,39.0,30.11,ESE,108,3.0,9.0,92,0.02,,,0.09,,2013-01-11 03:02:00,
2013-01-10 22:12:00,41.0,39.0,30.11,ESE,108,3.0,9.0,92,0.02,,,0.09,,2013-01-11 03:12:00,
2013-01-10 22:23:00,41.0,39.0,30.11,SE,126,2.0,8.0,92,0.01,,,0.09,,2013-01-11 03:23:00,
2013-01-10 22:33:00,42.0,40.0,30.10,ESE,109,2.0,7.0,91,0.00,,,0.09,,2013-01-11 03:33:00,
2013-01-10 22:43:00,42.0,40.0,30.10,ESE,109,2.0,7.0,91,0.00,,,0.09,,2013-01-11 03:43:00,
2013-01-10 22:52:00,43.0,41.0,30.10,South,176,2.0,10.0,91,0.00,,,0.09,,2013-01-11 03:52:00,
2013-01-10 23:02:00,43.0,40.0,30.09,ESE,121,3.0,8.0,90,0.00,,,0.09,,2013-01-11 04:02:00,
2013-01-10 23:12:00,43.0,40.0,30.09,ESE,121,3.0,8.0,90,0.00,,,0.09,,2013-01-11 04:12:00,
2013-01-10 23:22:00,43.0,40.0,30.09,East,84,1.0,3.0,90,0.00,,,0.09,,2013-01-11 04:22:00,
2013-01-10 23:33:00,43.0,40.0,30.08,North,11,1.0,5.0,89,0.00,,,0.09,,2013-01-11 04:33:00,
2013-01-10 23:42:00,43.0,40.0,30.08,North,11,1.0,5.0,89,0.00,,,0.09,,2013-01-11 04:42:00,
2013-01-10 23:52:00,43.0,40.0,30.07,East,86,1.0,6.0,89,0.00,,,0.09,,2013-01-11 04:52:00,